Location: Alexandria
(38.8050°N, 77.0470°W)
Time: 20:36:33
(UTC-04:00)

N. Korean satellite - Pass Details

Date: 18 February 2018
Orbit: 458 x 514 km, 97.2° (Epoch: 23 May)

Event Time Altitude Azimuth Distance (km) Brightness Sun altitude
Rises 06:14:53 0° 22° (NNE) 2,571 10.4 -8.6°
Reaches altitude 10° 06:17:07 10° 33° (NNE) 1,695 9.7 -8.2°
Maximum altitude 06:20:24 31° 97° (E) 899 8.9 -7.5°
Drops below altitude 10° 06:23:42 10° 161° (SSE) 1,710 9.7 -6.9°
Sets 06:25:58 0° 172° (S) 2,597 10.5 -6.5°
